Inscriptos

5000 Electronico
Fecha Serie Viento Presión Humedad Temperatura
01-04-2017 Final_A
Andarivel Nombre Dia Mes Año Equipo Mejor Marca
216 Imanol Cruz Mateo 6 7 1978 14.14.00
217 Alexsander De Los Santos Ubaldo 22 9 1985 14.16.00
131 Mamani Victor Hugo 5 9 1990 14.23.52
218 Muñoz Eulalio 16 7 1995 14.27.46
219 Frencia Gustavo 2 7 1992 14.28.20
220 Arbe Joaquin Emanuel 25 8 1990 14.29.49
221 Cichilitti Agustin 11 12 1989 14.30.78
222 Fabricius Marcelo Alejandro 10 8 1993 14.31.74
223 Presti Gianfranco 29 12 1994 14.34.10
224 Manrique Fabian 6 1 1994 14.35.78
225 Molina Luis 7 3 1988 14.36.02
226 Monin Alejandro Ezequiel 10 9 1987 14.38.58
227 Servian Carlos Gonzalez 19 8 1991 14.45.39
228 Pablo De Jesus Arguello 27 5 1991 14.48.60
229 Maldonado Bernardo 2 3 1994 14.51.10
230 Dante Leonel Mansilla 20 12 1995 14.55.95
231 Michia Marcelo Alejandro 23 6 1991 14.55.99
232 Stutz Jorge 15 1 1988 14.57.74
233 Zabala Jose 5 2 1999 14.59.10
234 Haro Gerardo 4 12 1981 15.00.00
235 Da Silva Agustn Adrian 21 2 1998 15.02.98
236 Unrein Alexis 28 10 1996 15.05.20
132 Pimentel Sergio 31 1 1991 15.05.39
238 Burgoa Rodrigo Sebastian 5 8 1999 15.06.00
239 Urtasun Cristian Damian 15 4 1990 15.08.32
240 Niestroj Alan Esteban 25 9 1992 15.13.64
241 Oliva Carlos Ignacio 27 3 1987 15.16.34
242 Micieli Leonardo Ezequiel 14 6 1988 15.19.24
237 Rivera Esteban 10 3 1997 15.23.45
243 Rosales Rodrigo Javier 5 1 1997 16.12.22